DW8454 Weather Reports


Display with metric or nautical units.
time (UTC)temp
F
wind
direction
speed
MPH
gust
MPH
rain 1hr
in
rain 24hr
in
rain mn
in
humidity
%
barometer
mb
20190524215840 66 75 0.0 0.0 0.00 0.00 0.00 61 1019.6
20190524214856 66 74 0.0 0.0 0.00 0.00 0.00 60 1019.7
20190524213844 66 88 0.0 2.0 0.00 0.00 0.00 63 1019.8
20190524212909 66 75 0.0 2.0 0.00 0.00 0.00 61 1020.0
20190524211928 66 58 0.0 3.0 0.00 0.00 0.00 61 1020.0
20190524210952 66 26 0.0 2.0 0.00 0.00 0.00 60 1020.1
20190524205923 66 64 0.0 2.0 0.00 0.00 0.00 60 1020.0
20190524204912 65 51 0.0 5.0 0.00 0.00 0.00 58 1020.0
20190524203916 66 39 0.0 5.0 0.00 0.00 0.00 58 1020.3
20190524202934 66 40 0.0 2.0 0.00 0.00 0.00 60 1020.1
20190524201944 66 32 0.0 0.0 0.00 0.00 0.00 59 1020.3
20190524200916 66 36 0.0 6.0 0.00 0.00 0.00 59 1020.1
20190524195933 66 26 0.0 4.0 0.00 0.00 0.00 57 1020.1
20190524194954 67 5 1.0 6.0 0.00 0.00 0.00 56 1020.2
20190524194008 68 19 0.0 5.0 0.00 0.00 0.00 56 1020.1
20190524192949 68 340 0.0 2.0 0.00 0.00 0.00 56 1020.0
20190524191951 69 0 0.0 6.0 0.00 0.00 0.00 57 1019.6
20190524190947 69 346 1.0 0.0 0.00 0.00 0.00 56 1019.4
20190524185936 70 22 0.0 5.0 0.00 0.00 0.00 57 1019.4
20190524184917 70 0 0.0 5.0 0.00 0.00 0.00 55 1019.2
20190524183856 71 355 0.0 0.0 0.00 0.00 0.00 54 1019.1
20190524182903 72 286 0.0 1.0 0.00 0.00 0.00 54 1019.1
20190524181901 73 306 0.0 0.0 0.00 0.00 0.00 51 1019.1
20190524180909 73 290 0.0 1.0 0.00 0.00 0.00 54 1019.2
20190524175929 72 138 0.0 0.0 0.00 0.00 0.00 53 1019.2
20190524174943 71 292 0.0 0.0 0.00 0.00 0.00 54 1019.1
20190524173923 71 292 0.0 0.0 0.00 0.00 0.00 52 1019.1
20190524172939 71 116 0.0 0.0 0.00 0.00 0.00 54 1019.1
20190524171951 71 147 0.0 2.0 0.00 0.00 0.00 53 1019.2
20190524170936 71 227 0.0 0.0 0.00 0.00 0.00 52 1019.2
20190524165953 71 209 0.0 0.0 0.00 0.00 0.00 54 1019.4
20190524164919 71 195 0.0 1.0 0.00 0.00 0.00 56 1019.1
20190524163916 70 80 0.0 6.0 0.00 0.00 0.00 56 1019.0
20190524162843 69 75 2.0 6.0 0.00 0.00 0.00 59 1018.2
20190524161835 69 51 0.0 3.0 0.00 0.00 0.00 62 1019.0
20190524160845 68 302 0.0 0.0 0.00 0.00 0.00 62 1019.8
20190524155832 67 65 0.0 3.0 0.00 0.00 0.00 63 1020.1
20190524154823 66 25 0.0 2.0 0.00 0.00 0.00 63 1020.5
20190524153752 65 5 0.0 3.0 0.00 0.00 0.00 63 1020.8
20190524152728 65 5 0.0 0.0 0.00 0.00 0.00 63 1021.0
20190524151717 65 355 0.0 4.0 0.00 0.00 0.00 61 1021.1
20190524150719 66 339 0.0 6.0 0.00 0.00 0.00 61 1021.0
20190524145728 67 0 0.0 3.0 0.00 0.00 0.00 60 1020.7
20190524144725 67 351 0.0 2.0 0.00 0.00 0.00 61 1020.1
20190524143724 67 324 0.0 3.0 0.00 0.00 0.00 62 1019.8
20190524142706 67 348 0.0 3.0 0.00 0.00 0.00 59 1019.7
20190524141634 67 5 0.0 3.0 0.00 0.00 0.00 61 1019.7
20190524140643 66 5 0.0 3.0 0.00 0.00 0.00 60 1019.7
20190524135622 66 38 0.0 3.0 0.00 0.00 0.00 61 1019.7
20190524134623 66 344 0.0 0.0 0.00 0.00 0.00 64 1019.7
20190524133603 65 350 0.0 0.0 0.00 0.00 0.00 64 1019.6
20190524132625 64 14 0.0 0.0 0.00 0.00 0.00 66 1019.5
20190524131611 63 22 0.0 0.0 0.00 0.00 0.00 68 1019.5
20190524130609 63 336 0.0 0.0 0.00 0.00 0.00 71 1019.4
20190524125627 61 331 0.0 0.0 0.00 0.00 0.00 75 1019.4
20190524124652 60 334 0.0 0.0 0.00 0.00 0.00 78 1019.2
20190524122453 58 22 0.0 0.0 0.00 0.00 0.00 86 1019.0
20190524121515 57 5 0.0 0.0 0.00 0.00 0.00 87 1019.0
20190524120515 56 5 0.0 0.0 0.00 0.08 0.00 87 1019.0
20190524115540 55 0 0.0 0.0 0.00 0.16 0.00 88 1018.9
20190524114527 54 341 0.0 0.0 0.00 0.16 0.00 87 1018.9
20190524113540 54 341 0.0 0.0 0.00 0.16 0.00 87 1019.0
20190524112527 53 341 0.0 0.0 0.00 0.16 0.00 86 1018.8
20190524111546 53 341 0.0 0.0 0.00 0.16 0.00 86 1018.7
20190524110529 53 341 0.0 0.0 0.00 0.16 0.00 85 1018.7
20190524105523 53 341 0.0 0.0 0.00 0.16 0.00 85 1018.8
20190524104519 53 341 0.0 0.0 0.00 0.16 0.00 84 1018.7
20190524103515 53 341 0.0 0.0 0.00 0.16 0.00 83 1018.6
20190524102537 53 341 0.0 0.0 0.00 0.16 0.00 81 1018.2
20190524101524 53 341 0.0 0.0 0.00 0.16 0.00 81 1018.1
20190524100533 53 341 0.0 0.0 0.00 0.16 0.00 80 1018.0
20190524095519 53 341 0.0 0.0 0.00 0.16 0.00 79 1018.0
20190524094527 54 341 0.0 0.0 0.00 0.16 0.00 78 1017.8
20190524093543 54 341 0.0 0.0 0.00 0.16 0.00 78 1017.6
20190524092527 55 341 0.0 0.0 0.00 0.16 0.00 76 1017.6
20190524091538 55 341 0.0 0.0 0.00 0.16 0.00 75 1017.4
20190524090504 56 341 0.0 0.0 0.00 0.16 0.00 74 1017.2
20190524085430 56 341 0.0 0.0 0.00 0.16 0.00 73 1016.9
20190524084422 57 341 0.0 0.0 0.00 0.16 0.00 71 1017.0
20190524083429 57 341 0.0 0.0 0.00 0.16 0.00 70 1017.1
20190524082442 58 341 0.0 0.0 0.00 0.16 0.00 69 1017.0
20190524081454 58 341 0.0 0.0 0.00 0.16 0.00 69 1016.9
20190524080421 59 341 0.0 0.0 0.00 0.16 0.00 68 1016.8
20190524075433 59 341 0.0 0.0 0.00 0.16 0.00 68 1016.7
20190524074429 60 347 0.0 0.0 0.00 0.16 0.00 67 1016.7
20190524073357 60 349 0.0 0.0 0.00 0.16 0.00 67 1016.6
20190524071418 61 348 0.0 0.0 0.00 0.16 0.00 66 1016.6
20190524070358 61 319 0.0 4.0 0.00 0.16 0.00 66 1016.7
20190524065405 61 252 0.0 3.0 0.00 0.16 0.00 65 1016.5
20190524064430 61 311 0.0 0.0 0.00 0.16 0.00 65 1016.5
20190524063451 61 292 0.0 4.0 0.00 0.16 0.00 65 1016.4
20190524062447 61 279 1.0 4.0 0.00 0.16 0.00 64 1016.4
20190524061447 61 290 1.0 4.0 0.00 0.16 0.00 64 1016.5
20190524060425 62 262 0.0 5.0 0.00 0.16 0.00 64 1016.6
20190524055414 62 320 1.0 6.0 0.00 0.16 0.00 64 1016.5
20190524054346 62 268 1.0 6.0 0.00 0.16 0.00 63 1016.6
20190524053346 62 301 0.0 6.0 0.00 0.16 0.00 63 1016.4
20190524052352 62 296 1.0 5.0 0.00 0.16 0.00 63 1016.4
20190524051403 62 303 1.0 7.0 0.00 0.16 0.00 62 1016.3
20190524050331 63 288 1.0 7.0 0.00 0.16 0.00 62 1016.3
20190524045259 63 284 1.0 7.0 0.00 0.16 0.00 61 1016.3
20190524044245 63 302 1.0 7.0 0.00 0.16 0.00 61 1016.3
20190524043305 63 298 1.0 8.0 0.00 0.16 0.00 60 1016.3
20190524042249 64 300 1.0 8.0 0.00 0.16 0.00 60 1016.2
20190524041234 64 296 1.0 7.0 0.00 0.16 0.00 59 1016.1
20190524040201 64 292 1.0 8.0 0.00 0.16 0.00 58 1016.1
20190524035146 65 305 2.0 8.0 0.00 0.16 0.16 57 1016.0
20190524034113 65 304 1.0 6.0 0.00 0.16 0.16 57 1015.9
20190524033122 65 292 2.0 6.0 0.00 0.16 0.16 55 1015.8
20190524032050 66 284 2.0 6.0 0.00 0.16 0.16 55 1015.7
20190524031056 66 292 2.0 10.0 0.00 0.16 0.16 53 1015.7
20190524030107 67 290 3.0 13.0 0.00 0.16 0.16 52 1015.6
20190524025119 67 248 3.0 13.0 0.00 0.16 0.16 51 1015.4
20190524024100 67 295 3.0 12.0 0.00 0.16 0.16 51 1015.3
20190524023047 68 281 3.0 11.0 0.00 0.16 0.16 51 1015.2
20190524022105 68 277 2.0 8.0 0.00 0.16 0.16 50 1015.0
20190524021036 68 279 3.0 9.0 0.00 0.16 0.16 50 1014.8
20190524020018 68 291 4.0 11.0 0.00 0.16 0.16 50 1014.6
20190524015009 69 294 4.0 11.0 0.00 0.16 0.16 52 1014.6
20190524013935 69 279 3.0 10.0 0.00 0.16 0.16 55 1014.4
20190524012941 69 298 3.0 10.0 0.00 0.16 0.16 56 1014.2
20190524011947 69 294 2.0 7.0 0.00 0.16 0.16 56 1014.1
20190524010954 70 294 2.0 7.0 0.00 0.16 0.16 57 1013.9
20190524010007 70 284 1.0 7.0 0.00 0.16 0.16 59 1013.7
20190524004952 71 292 1.0 7.0 0.00 0.16 0.16 59 1013.7
20190524004015 71 297 2.0 7.0 0.00 0.16 0.16 59 1013.6
20190524003012 72 289 2.0 6.0 0.00 0.16 0.16 58 1013.4
20190524002003 72 265 1.0 7.0 0.00 0.16 0.16 57 1013.3
20190524001008 73 254 2.0 10.0 0.00 0.16 0.16 57 1013.2
20190524000021 73 277 4.0 10.0 0.00 0.16 0.16 56 1013.2
20190523235024 74 298 2.0 7.0 0.00 0.16 0.16 60 1013.1
20190523234035 74 296 2.0 9.0 0.00 0.16 0.16 60 1013.0
20190523233027 74 250 3.0 9.0 0.00 0.16 0.16 61 1012.9
20190523232052 74 246 3.0 8.0 0.00 0.16 0.16 61 1012.9
20190523231104 75 269 2.0 7.0 0.00 0.16 0.16 61 1013.0
20190523230119 75 281 3.0 12.0 0.00 0.16 0.16 60 1013.0
20190523225055 76 294 4.0 17.0 0.00 0.16 0.16 59 1013.0
20190523224034 77 305 4.0 18.0 0.00 0.16 0.16 57 1012.8
20190523223002 77 291 5.0 18.0 0.00 0.16 0.16 57 1012.8
20190523222025 77 267 6.0 17.0 0.00 0.16 0.16 56 1012.8
20190523221006 77 299 6.0 17.0 0.00 0.16 0.16 56 1012.9